West Memphis, AR

8:33 PM CDT on July 25, 2017 (GMT -0500)
West Memphis Municipal

Weather History for KAWM - April, 2014

Change the Weather History Date:

Tuesday, April 1, 2014

  Actual Average Record
Temperature  
Mean Temperature 63 °F -  
Max Temperature 75 °F 69 °F 86 °F (2012)
Min Temperature 53 °F 44 °F 29 °F (1984)
Degree Days  
Heating Degree Days 2    
Growing Degree Days 13 (Base 50)    
Moisture  
Dew Point 55 °F    
Average Humidity 71    
Maximum Humidity 93    
Minimum Humidity 53    
Precipitation  
Precipitation 0.00 in - - ()
Sea Level Pressure  
Sea Level Pressure 30.02 in    
Wind  
Wind Speed 6 mph (SSW)    
Max Wind Speed 12 mph    
Max Gust Speed 20 mph    
Visibility 10 miles    
Events      
Averages and records for this station are not official NWS values.
T = Trace of Precipitation, MM = Missing Value Source: NWS Daily Summary

Daily Weather History Graph

Daily Weather History Graph

Search for Another Location

Airport or City:

Trip Planner

Search our weather history database for the weather conditions in past years. The results will help you decide how hot, cold, wet, or windy it might be!

Date:

Astronomy

Apr. 01, 2014 Rise Set
Actual Time 6:47 AM CDT 7:22 PM CDT
Civil Twilight 6:22 AM CDT 7:47 PM CDT
Nautical Twilight 5:52 AM CDT 8:17 PM CDT
Astronomical Twilight 5:21 AM CDT 8:48 PM CDT
Moon 7:54 AM CDT (4/1) 9:39 PM CDT (4/1)
Length of Visible Light 13h 25m
Length of Day
12h 34m
Waxing Crescent, 5% of the Moon is Illuminated
Apr 1
Waxing Crescent
Apr 7
First Quarter
Apr 15
Full
Apr 22
Last Quarter
Apr 29
New

Hourly Weather History & Observations

Time (CDT) Temp. Dew Point Humidity Pressure Visibility Wind Dir Wind Speed Gust Speed Precip Events Conditions
12:53 AM 57.9 °F 48.9 °F 72% 29.99 in 10.0 mi South 4.6 mph - N/A   Mostly Cloudy
1:53 AM 61.0 °F 46.9 °F 60% 29.99 in 10.0 mi SW 3.5 mph - N/A   Overcast
2:53 AM 59.0 °F 46.0 °F 62% 29.99 in 10.0 mi South 6.9 mph - N/A   Clear
3:53 AM 57.0 °F 46.0 °F 67% 30.00 in 10.0 mi South 6.9 mph - N/A   Clear
4:53 AM 54.0 °F 46.0 °F 75% 30.01 in 10.0 mi South 6.9 mph - N/A   Clear
5:53 AM 57.0 °F 48.0 °F 72% 30.03 in 10.0 mi SSW 5.8 mph - N/A   Clear
6:53 AM 53.1 °F 48.0 °F 83% 30.05 in 10.0 mi South 8.1 mph - N/A   Partly Cloudy
7:53 AM 57.0 °F 50.0 °F 77% 30.06 in 10.0 mi South 6.9 mph - N/A   Clear
8:53 AM 62.1 °F 53.1 °F 72% 30.06 in 10.0 mi South 9.2 mph - N/A   Clear
9:53 AM 66.0 °F 55.9 °F 70% 30.06 in 10.0 mi SSW 8.1 mph - N/A   Clear
10:53 AM 68.0 °F 57.9 °F 70% 30.06 in 10.0 mi Variable 5.8 mph - N/A   Clear
11:53 AM 69.1 °F 59.0 °F 70% 30.06 in 10.0 mi SW 6.9 mph - N/A   Partly Cloudy
12:15 PM 70.0 °F 59.0 °F 68% 30.07 in 10.0 mi SW 6.9 mph - N/A   Mostly Cloudy
12:33 PM 69.1 °F 57.9 °F 68% 30.07 in 10.0 mi SW 8.1 mph - N/A   Mostly Cloudy
12:53 PM 71.1 °F 60.1 °F 68% 30.06 in 10.0 mi WSW 8.1 mph - N/A   Overcast
1:53 PM 71.1 °F 60.1 °F 68% 30.04 in 10.0 mi SSW 8.1 mph - N/A   Overcast
2:06 PM 71.1 °F 59.0 °F 66% 30.04 in 10.0 mi SW 4.6 mph - N/A   Overcast
2:25 PM 72.0 °F 60.1 °F 66% 30.03 in 10.0 mi South 11.5 mph - N/A   Scattered Clouds
2:53 PM 72.0 °F 59.0 °F 64% 30.01 in 10.0 mi SSW 9.2 mph - N/A   Clear
3:53 PM 73.9 °F 55.9 °F 53% 29.99 in 10.0 mi SW 11.5 mph 19.6 mph N/A   Partly Cloudy
4:53 PM 73.0 °F 55.9 °F 55% 29.98 in 10.0 mi SW 9.2 mph 18.4 mph N/A   Partly Cloudy
5:53 PM 72.0 °F 57.0 °F 59% 29.98 in 10.0 mi SSW 10.4 mph - N/A   Overcast
6:53 PM 70.0 °F 59.0 °F 68% 29.98 in 10.0 mi South 10.4 mph - N/A   Clear
7:53 PM 66.0 °F 57.9 °F 75% 29.99 in 10.0 mi South 5.8 mph - N/A   Clear
8:53 PM 64.0 °F 57.9 °F 80% 29.99 in 10.0 mi SSE 3.5 mph - N/A   Scattered Clouds
9:53 PM 63.0 °F 57.9 °F 84% 29.99 in 10.0 mi Calm Calm - N/A   Clear
10:53 PM 61.0 °F 57.9 °F 90% 29.98 in 10.0 mi Calm Calm - N/A   Clear
11:53 PM 59.0 °F 57.0 °F 93% 29.97 in 10.0 mi SSE 3.5 mph - N/A   Clear